Regional Weather Roundup
Issued by NWS

Home | Current Version | Previous Version | Text Only | Print | Product List | Glossary On
Versions: 1 2 3 4 5 6 7 8 9 10 11 12 13 14 15 16 17 18 19 20 21 22 23 24 25 26 27 28 29 30 31 32 33 34 35 36 37 38 39 40 41 42 43 44 45 46 47 48 49 50
000
ASUS43 KFSD 250110
RWRSD

WEATHER ROUNDUP FOR SOUTH DAKOTA
NATIONAL WEATHER SERVICE SIOUX FALLS SD
800 PM CDT THU JUL 24 2014

NOTE: "FAIR" INDICATES FEW OR NO CLOUDS BELOW 12,000 FEET WITH NO
SIGNIFICANT WEATHER AND/OR OBSTRUCTIONS TO VISIBILITY.


SDZ001>005-009-010-012>017-250200-
NORTHWEST AND NORTH CENTRAL SOUTH DAKOTA

CITY           SKY/WX    TMP DP  RH WIND       PRES   REMARKS
BUFFALO          N/A     73  62  68 E14G22    29.72R
FAITH            N/A     84  70  62 E8        29.66F
MOBRIDGE       MOSUNNY   78  66  66 E20G31    29.67F
$$

SDZ012>016-024>037-041>051-057-063-072>074-250200-
SOUTHWEST AND SOUTH CENTRAL SOUTH DAKOTA

CITY           SKY/WX    TMP DP  RH WIND       PRES   REMARKS
RAPID CTY ARPT PTSUNNY   87  73  62 S3        29.69F
PIERRE         MOSUNNY   89  70  53 SE20G32   29.60F
CUSTER         PTSUNNY   85  43  22 SW5       29.91F
ELLSWORTH AFB  PTSUNNY   89  70  53 S6        29.68F
PHILIP         MOSUNNY  101  56  22 S6        29.61F HX 100
PINE RIDGE     PTSUNNY   87  58  37 S10       29.76F
WINNER         FAIR      92  70  48 S20G29    29.69R HX  97
$$

SDZ004>011-016>023-039-040-250200-
NORTHEAST SOUTH DAKOTA

CITY           SKY/WX    TMP DP  RH WIND       PRES   REMARKS
ABERDEEN       SUNNY     74  63  68 SE15      29.78S
WATERTOWN      CLEAR     70  57  63 SE14G23   29.82F
SISSETON         N/A     72  65  78 S9        29.83S
$$

SDZ017-020-022-023-036>040-048>070-250200-
SOUTHEAST SOUTH DAKOTA

CITY           SKY/WX    TMP DP  RH WIND       PRES   REMARKS
SIOUX FALLS    PTCLDY    71  62  73 S16       29.86F
HURON          SUNNY     74  62  66 SE16G32   29.75S
CHAMBERLAIN    SUNNY     84  69  61 SE18G30   29.69F
MITCHELL       CLEAR     77  64  64 SE28G39   29.77F
YANKTON        CLEAR     75  64  69 SE20G26   29.83F
$$

ABBREVIATIONS USED IN REMARKS
   TC - TEMPERATURE IN CELSIUS
  WCI - WIND CHILL INDEX
   HX - HEAT INDEX
  VSB - VISIBILITY



USA.gov is the U.S. government's official web portal to all federal, state and local government web resources and services.